Regional Weather Roundup
Issued by NWS

Home | Current Version | Previous Version | Text Only | Print | Product List | Glossary On
Versions: 1 2 3 4 5 6 7 8 9 10 11 12 13 14 15 16 17 18 19 20 21 22 23 24 25 26 27 28 29 30 31 32 33 34 35 36 37 38 39 40 41 42 43 44 45 46 47 48 49 50
048
ASUS44 KLIX 300911
RWRLA
LOUISIANA WEATHER ROUNDUP
NATIONAL WEATHER SERVICE NEW ORLEANS LA
400 AM CDT MON MAY 30 2016

NOTE: "FAIR" INDICATES FEW OR NO CLOUDS BELOW 12,000 FEET WITH NO
      SIGNIFICANT WEATHER AND/OR OBSTRUCTIONS TO VISIBILITY.
      SKY/WX - SKY CONDITION AND SIGNIFICANT WEATHER.
      TMP - AIR TEMPERATURE.    DP   - DEWPOINT TEMPERATURE.
      RH  - RELATIVE HUMIDITY.  PRES - PRESSURE.
      HX  - HEAT INDEX.         WCI  - WIND CHILL INDEX.

*  THESE STATIONS ARE NOT NWS OR FAA STATIONS AND ARE NOT UNDER
   NWS QUALITY CONTROL.

LAZ040-048-061>063-065-066-069-301000-
SOUTHEAST LOUISIANA

CITY           SKY/WX    TMP DP  RH WIND       PRES   REMARKS
N.O. AUDUBON   NOT AVBL
N.O. INTL ARPT PTCLDY    74  71  91 SW3       30.00F
N.O. LAKEFRONT CLEAR     77  71  82 SW5       30.00F
N.O. DOWNTOWN* FAIR      77  72  84 SW3       30.01F
RESERVE*       FAIR      74  72  92 CALM      30.00S
SLIDELL        CLEAR     71  69  93 CALM      29.99F
BATON ROUGE    CLEAR     72  69  90 CALM      30.01R
BOOTHVILLE     CLEAR     75  71  87 CALM      30.01F
BELLE CHASSE   CLEAR     70  69  97 CALM      29.99F
BOGALUSA*      FAIR      71  67  88 CALM      30.01F
GALLIANO*      SUNNY     65  64  96 CALM      29.99F FOG
NEW ROADS*     FAIR      71  69  95 CALM      30.01S
GONZALES*      FAIR      70  70 100 CALM      30.00R
HAMMOND*       CLEAR     72  68  88 CALM      30.00S
HOUMA*         CLEAR     70  70 100 CALM      29.99F FOG
PORT FOURCHON* SUNNY     79  72  78 CALM      30.00F

$$

LAZ041-044-053-054-301000-
SOUTHWEST LOUISIANA

CITY           SKY/WX    TMP DP  RH WIND       PRES   REMARKS
LAKE CHARLES   CLEAR     72  71  97 CALM      29.99F
LAFAYETTE      CLEAR     75  73  93 CALM      30.00S
PATTERSON      CLEAR     72  71  97 CALM      30.00S
SALT POINT       N/A     75  73  93 CALM      29.98S
NEW IBERIA     CLEAR     73  72  96 CALM      30.00F FOG
CHENAULT AIRPK NOT AVBL

$$

LAZ027-028-301000-
CENTRAL LOUISIANA

CITY           SKY/WX    TMP DP  RH WIND       PRES   REMARKS
FORT POLK      CLOUDY    71  69  95 E2        30.01F
ALEXANDRIA INT CLOUDY    71  70  96 CALM      29.99F
ALEXANDRIA     CLOUDY    71  68  90 CALM      30.01F FOG

$$

LAZ001-002-301000-
NORTHWEST LOUISIANA

CITY           SKY/WX    TMP DP  RH WIND       PRES   REMARKS
SHREVEPORT     CLOUDY    73  66  78 CALM      30.01S
BARKSDALE AFB  CLOUDY    70  66  88 CALM      30.01F
DTN SHREVEPORT CLOUDY    71  66  84 CALM      30.01F

$$

LAZ014-016-301000-
NORTHEAST LOUISIANA

CITY           SKY/WX    TMP DP  RH WIND       PRES   REMARKS
MONROE         CLOUDY    69  67  93 CALM      30.01F
TALLULAH       CLOUDY    67  65  93 CALM      30.01S

$$





USA.gov is the U.S. government's official web portal to all federal, state and local government web resources and services.